This is the latest recevied weather packets stored in our database for station/object IU1OPQ-3. If no packets are shown the sender has not sent any weather packets the latest 10 day(s).
| Time | Temp. | Humidity | Pressure | Rain* | Wind** | Luminosity | Snow |
|---|---|---|---|---|---|---|---|
| 1777593601 | 12.22° C | 68% | 1024.3 hPa | 0 mm | - | - | - |
| 1777592701 | 12.22° C | 68% | 1024.1 hPa | 0 mm | - | - | - |
| 1777591801 | 11.67° C | 69% | 1024.4 hPa | 0 mm | - | - | - |
| 1777590901 | 12.22° C | 68% | 1024.2 hPa | 0 mm | - | - | - |
| 1777590001 | 11.67° C | 69% | 1024.3 hPa | 0 mm | - | - | - |
| 1777589101 | 12.22° C | 69% | 1024.2 hPa | 0 mm | - | - | - |
| 1777588201 | 12.22° C | 68% | 1024.2 hPa | 0 mm | - | - | - |
| 1777587300 | 11.67° C | 70% | 1024.3 hPa | 0 mm | - | - | - |
| 1777586401 | 12.22° C | 68% | 1024 hPa | 0 mm | - | - | - |
| 1777585501 | 12.22° C | 68% | 1024.1 hPa | 0 mm | - | - | - |
| 1777584600 | 12.22° C | 70% | 1024.3 hPa | 0 mm | - | - | - |
| 1777583701 | 11.67° C | 70% | 1024.2 hPa | 0 mm | - | - | - |
| 1777582801 | 11.67° C | 72% | 1023.9 hPa | 0 mm | - | - | - |
| 1777581901 | 11.67° C | 71% | 1023.9 hPa | 0 mm | - | - | - |
| 1777581001 | 11.67° C | 73% | 1024 hPa | 0 mm | - | - | - |
| 1777580101 | 11.67° C | 73% | 1023.7 hPa | 0 mm | - | - | - |
| 1777579201 | 11.67° C | 73% | 1023.4 hPa | 0 mm | - | - | - |
| 1777578301 | 11.67° C | 74% | 1023.4 hPa | 0 mm | - | - | - |
| 1777577401 | 11.67° C | 75% | 1023.3 hPa | 0 mm | - | - | - |
| 1777576501 | 11.67° C | 75% | 1023.1 hPa | 0 mm | - | - | - |
| 1777575601 | 11.67° C | 76% | 1022.9 hPa | 0 mm | - | - | - |
| 1777574700 | 11.67° C | 76% | 1022.8 hPa | 0 mm | - | - | - |
| 1777573801 | 11.67° C | 77% | 1022.6 hPa | 0 mm | - | - | - |
| 1777572901 | 12.22° C | 76% | 1022.6 hPa | 0 mm | - | - | - |
| 1777572001 | 13.33° C | 72% | 1022.4 hPa | 0 mm | - | - | - |
* Rain latest hour (hover to see other rain measurements)
** Current wind speed in m/s (hover to see current wind gust speed)